Location: De Har
(53.3413°N, 6.6858°E)
Time: 20:59:11
(UTC+00:00)

Cosmos 1634 Rocket - Pass Details

Date: 22 April 2026
Orbit: 959 x 991 km, 82.9° (Epoch: 21 May)

Event Time Altitude Azimuth Distance (km) Brightness Sun altitude
Exits shadow 00:35:56 36° 151° (SSE) 1,493 4.6 -23.1°
Maximum altitude 00:38:18 56° 93° (E) 1,140 4.4 -23.0°
Drops below altitude 10° 00:44:18 10° 17° (NNE) 2,706 7.5 -22.7°
Sets 00:46:51 0° 13° (NNE) 3,656 8.5 -22.6°
